Tracking 20621 objects as of 31-Mar-2020
HD Live streaming from Space Station
objects crossing your sky now

DELTA 4 R/B

Track DELTA 4 R/B now!


NORAD ID: 35492
Int'l Code: 2009-033B
Perigee: 6,651.4 km
Apogee: 35,075.2 km
Inclination: 14.3 °
Period: 745.5 minutes
Semi major axis: 27234 km
RCS: 39.3633 m2 (large)
Launch date: June 27, 2009
Source: United States (US)
Launch site: AIR FORCE EASTERN TEST RANGE (AFETR)

Note: This is a ROCKET BODY
aabbcc
Your satellite tracking list
Your tracking list is empty




NASA's NSSDC Master Catalog

Two Line Element Set (TLE):
1 35492U 09033B   20090.49076428 -.00000237 +00000-0 +00000-0 0  9992
2 35492 014.2866 354.3354 5218399 334.7152 190.8549 01.93165151075900
Source of the keplerian elements: AFSPC